Home   Weather   San Antonio   Past weeks

Flag for USA Past Weather in San Antonio, Texas, USA — Yesterday and Last 2 Weeks

Now
60 °F

Strong thunderstorms. Mostly cloudy.


Feels Like: 60 °F
Forecast: 55 / 74 °F
Wind: 6 mph from Northwest

Location: San Antonio International Airport

Current Time: Feb 20, 2017 at 3:07:18 am

Latest Report: Feb 20, 2017 at 1:51 am


Visibility: 7 mi

Pressure: 29.85 "Hg

Humidity: 90%

Dew Point: 57 °F

Location of San AntonioLocation

Past Weather in San Antonio — Graph

°F

San Antonio Temperature Yesterday

Maximum temperature yesterday: 80 °F (at 1:51 pm)
Minimum temperature yesterday: 58 °F (at 10:57 pm)
Average temperature yesterday: 71 °F

High & Low Weather Summary for the Past Weeks

 TemperatureHumidityPressure
High87 °F (Feb 8, 12:51 pm)100% (Feb 5, 4:51 am)30.31 "Hg (Feb 5, 4:51 am)
Low39 °F (Feb 16, 6:51 am)17% (Feb 7, 5:51 pm)29.67 "Hg (Feb 18, 5:51 pm)
Average65 °F68%29.96 "Hg
* Reported Feb 5 1:51 am — Feb 20 1:51 am, San Antonio, Weather by CustomWeather, © 2017

Note: Actual official high and low records may vary slightly from our data, if they occured in-between our weather recording intervals... More about our weather records

Advertising

San Antonio Weather History for the Previous 24 Hours

Scroll right to see more
 ConditionsComfort  
Time TempWeatherWind HumidityBarometerVisibility
1:51 am
Mon, Feb 20
60 °FStrong thunderstorms. Mostly cloudy.6 mph90%29.85 "Hg7 mi
12:51 am60 °FLight rain. Overcast.7 mph86%29.80 "Hg10 mi
12:09 am60 °FLight rain. Mostly cloudy.16 mph86%29.86 "Hg10 mi
11:51 pm
Sun, Feb 19
59 °FStrong thunderstorms. Fog.17 mph90%29.90 "Hg4 mi
11:40 pm59 °FStrong thunderstorms. Fog.13 mph90%30.00 "Hg3 mi
11:09 pm59 °FThunderstorms. Fog.21 mph90%29.98 "Hg3 mi
10:57 pm58 °FStrong thunderstorms. Fog.30 mph93%29.93 "Hg1 mi
10:35 pm70 °FThunderstorms. Fog.13 mph93%29.84 "Hg4 mi
10:19 pm70 °FStrong thunderstorms. Fog.5 mph93%29.82 "Hg2 mi
10:00 pm70 °FThunderstorms. Fog.12 mph93%29.83 "Hg3 mi
8:51 pm73 °FMostly cloudy.10 mph81%29.73 "Hg10 mi
7:51 pm73 °FMostly cloudy.15 mph79%29.74 "Hg10 mi
6:51 pm74 °FMostly cloudy.15 mph76%29.74 "Hg10 mi
5:51 pm76 °FMore clouds than sun.13 mph69%29.74 "Hg10 mi
4:51 pm77 °FBroken clouds.14 mph66%29.74 "Hg10 mi
3:51 pm79 °FPartly sunny.18 mph65%29.75 "Hg10 mi
2:51 pm79 °FPartly sunny.18 mph62%29.73 "Hg10 mi
1:51 pm80 °FBroken clouds.24 mph62%29.75 "Hg10 mi
12:51 pm76 °FCloudy.16 mph72%29.77 "Hg10 mi
11:51 am75 °FCloudy.14 mph74%29.81 "Hg8 mi
10:51 am75 °FCloudy.16 mph74%29.80 "Hg9 mi
10:15 am74 °FMostly cloudy.17 mph79%29.87 "Hg7 mi
9:51 am73 °FMostly cloudy.14 mph81%29.82 "Hg6 mi
8:51 am71 °FFog.13 mph87%29.81 "Hg4 mi
8:08 am69 °FFog.10 mph93%29.84 "Hg3 mi
7:51 am69 °FFog.12 mph90%29.79 "Hg4 mi
7:24 am69 °FFog.12 mph90%29.83 "Hg4 mi
6:53 am68 °FFog.12 mph93%29.82 "Hg4 mi
5:58 am68 °FFog.8 mph93%29.82 "Hg5 mi
4:51 am68 °FFog.7 mph90%29.75 "Hg6 mi
3:51 am68 °FMostly cloudy.6 mph90%29.76 "Hg7 mi
Weather by CustomWeather, © 2017

See weather overviewHow to use our weather pages